Tracking 25378 objects as of 22-Jan-2022
HD Live streaming from Space Station
objects crossing your sky now

CHINASAT 7

Track CHINASAT 7 now!
CHINASAT 7 is classified as:


NORAD ID: 24282
Int'l Code: 1996-048A
Perigee: 21,235.6 km
Apogee: 46,951.5 km
Inclination: 19.4 °
Period: 1,350.1 minutes
Semi major axis: 40464 km
RCS: 1 m2 (large)
Launch date: August 18, 1996
Source: People's Republic of China (PRC)
Launch site: Xichang Space Center, China (XSC)
aabbcc
Your satellite tracking list
Your tracking list is empty




NASA's NSSDC Master Catalog

Two Line Element Set (TLE):
1 24282U 96048A   22021.79031753  .00000026  00000-0  00000-0 0  9995
2 24282  19.4375 235.0081 3177588 197.9179 152.8769  1.06657533101578
Source of the keplerian elements: AFSPC